DateTimeUTC,F1_A11,F1_S11,BsB_S11,BsG_S11,BsR_S11,BbsB_S11,BbsG_S11,BbsR_S11,BaB_A11,BaG_A11,BaR_A11,Tu_S11,T_S11,Uu_S11,U_S11,P_S11,T1_A11
2021-05-27T14:00:00Z,00000200,20000000,,,,,,,-000.38,-000.12,-000.63,20.2,26.3,05.9,04.1,0679.4,31.1
2021-05-27T14:01:00Z,00000200,20000000,,,,,,,-000.47,-000.20,-000.18,20.2,26.3,05.9,04.1,0679.4,31.1
2021-05-27T14:02:00Z,00000200,20000000,,,,,,,-000.02,0000.00,-000.03,20.2,26.3,05.9,04.1,0679.4,31.1
2021-05-27T14:03:00Z,00000200,60000000,,,,,,,0001.03,0000.76,0001.02,20.2,26.3,05.9,04.1,0679.4,31.1
2021-05-27T14:04:00Z,00000200,40000000,0000.62,0000.77,0000.31,0000.23,-000.01,0000.13,-000.59,-000.37,-000.45,20.2,26.1,06.0,04.2,0680.3,31.1
2021-05-27T14:05:00Z,00000200,00000000,0000.78,0000.80,0000.14,0000.18,-000.03,-000.14,0000.66,0000.38,0000.27,20.3,26.1,05.9,04.1,0680.4,31.1
2021-05-27T14:06:00Z,00000200,00000000,0001.24,0000.81,0000.24,0000.43,0000.19,0000.31,0000.65,0000.68,0000.30,20.3,26.1,05.9,04.2,0680.4,31.1
2021-05-27T14:07:00Z,00000200,00000000,0000.25,0000.78,0000.14,0000.16,-000.15,0000.07,0000.34,-000.00,0000.36,20.3,26.1,05.8,04.1,0680.5,31.1
2021-05-27T14:08:00Z,00000200,00000000,0000.90,0000.94,0000.24,0000.10,0000.13,0000.04,-000.06,0000.15,-000.03,20.3,26.1,05.9,04.2,0680.5,31.1
2021-05-27T14:09:00Z,00000200,00000000,0001.59,0000.88,0000.48,0000.12,0000.11,0000.19,0000.63,0000.62,0000.54,20.3,26.1,05.9,04.1,0680.6,31.1
2021-05-27T14:10:00Z,00000200,00000000,0000.64,0000.80,0000.14,0000.14,0000.20,0000.18,-000.12,-000.14,-000.28,20.3,26.1,05.8,04.1,0680.6,31.1
2021-05-27T14:11:00Z,00000200,00000000,0001.05,0000.74,0000.59,-000.10,0000.06,0000.34,0000.68,0000.52,0000.60,20.3,26.1,05.7,04.0,0680.6,31.1
2021-05-27T14:12:00Z,00000200,00000000,0001.19,0000.81,0000.46,0000.20,0000.38,0000.25,0000.32,0000.38,-000.07,20.3,26.1,05.9,04.2,0680.6,31.1
2021-05-27T14:13:00Z,00000200,00000000,0001.19,0000.72,0000.37,0000.04,-000.06,-000.30,-000.22,-000.34,-000.10,20.3,26.1,05.6,04.0,0680.7,31.1
2021-05-27T14:14:00Z,00000200,00000000,0000.94,0000.93,0000.64,0000.43,0000.20,0000.22,0000.23,0000.11,0000.08,20.3,26.1,05.4,03.8,0680.7,31.1
2021-05-27T14:15:00Z,00000200,00000000,0000.94,0001.05,0000.53,0000.21,-000.07,0000.04,0000.09,0000.03,-000.19,20.3,26.1,05.3,03.7,0680.7,31.1
2021-05-27T14:16:00Z,00000200,00000000,0000.30,0000.95,0000.25,0000.67,0000.13,0000.09,0000.16,0000.81,0000.36,20.3,26.1,05.4,03.8,0680.7,31.1
2021-05-27T14:17:00Z,00000200,00000000,0000.49,0000.94,0000.41,0000.57,0000.33,0000.20,0001.02,0000.68,0001.09,20.3,26.1,05.3,03.8,0680.7,31.1
2021-05-27T14:18:00Z,00000200,00000000,0000.73,0000.99,0000.58,-000.01,0000.28,-000.11,0000.21,0000.21,-000.27,20.3,26.1,05.6,03.9,0680.7,31.1
2021-05-27T14:19:00Z,00000200,00000000,0000.69,0000.85,0000.23,0000.32,0000.08,-000.13,0000.71,0000.81,0001.42,20.3,26.1,05.5,03.9,0680.8,31.1
2021-05-27T14:20:00Z,00000200,00000000,0000.96,0000.91,0000.19,0000.86,0000.23,-000.13,0000.43,0000.37,-000.10,20.3,26.1,05.7,04.0,0680.8,31.1
2021-05-27T14:21:00Z,00000200,00000000,0000.49,0000.47,0000.27,0000.44,-000.12,0000.01,0000.76,0000.25,0000.30,20.3,26.1,05.8,04.1,0680.8,31.1
2021-05-27T14:22:00Z,00000200,00000000,0001.09,0000.64,0000.47,0000.36,0000.10,0000.10,0000.26,0000.77,0000.29,20.3,26.1,05.9,04.2,0680.8,31.1
2021-05-27T14:23:00Z,00000200,00000000,0000.84,0000.76,0000.29,0000.57,0000.07,0000.18,-000.08,-000.93,-000.24,20.3,26.1,05.5,03.9,0680.8,31.1
2021-05-27T14:24:00Z,00000200,00000000,0001.20,0000.68,-000.09,0000.23,0000.15,0000.10,0000.36,0000.77,0000.32,20.3,26.1,05.4,03.8,0680.8,31.1
2021-05-27T14:25:00Z,00000200,00000000,0001.24,0000.98,0000.20,0000.15,0000.15,-000.51,0000.46,0000.58,0000.38,20.3,26.1,05.8,04.0,0680.8,31.1
2021-05-27T14:26:00Z,00000200,00000000,0000.90,0000.88,0000.93,0000.70,0000.16,0000.19,0000.69,0000.62,0000.69,20.3,26.1,05.8,04.1,0680.7,31.1
2021-05-27T14:27:00Z,00000200,00000000,0000.74,0000.73,0000.35,0000.76,0000.04,-000.17,0001.19,0001.06,0000.43,20.3,26.1,05.9,04.1,0680.7,31.1
2021-05-27T14:28:00Z,00000200,00000000,0001.30,0001.07,0000.54,-000.07,0000.12,0000.16,-000.73,-000.57,0000.26,20.3,26.1,05.9,04.2,0680.7,31.1
2021-05-27T14:29:00Z,00000200,00000000,0000.90,0000.84,0000.68,0000.59,0000.33,-000.07,0000.54,0000.37,-000.26,20.3,26.1,05.9,04.1,0680.7,31.1
2021-05-27T14:30:00Z,00000200,00000000,0001.08,0000.60,0000.36,0000.44,0000.00,0000.08,0000.51,0000.83,0000.71,20.3,26.1,05.8,04.1,0680.7,31.1
2021-05-27T14:31:00Z,00000200,00000000,0000.59,0000.86,0000.44,0000.03,0000.12,0000.27,0000.49,0000.31,0000.38,20.3,26.1,05.9,04.2,0680.6,31.1
2021-05-27T14:32:00Z,00000200,00000000,0000.91,0000.80,0000.19,0000.36,0000.04,0000.07,0000.62,0000.29,0000.06,20.3,26.1,05.8,04.1,0680.6,31.1
2021-05-27T14:33:00Z,00000200,00000000,0001.11,0000.61,0000.29,0000.12,0000.01,0000.04,0000.53,0000.70,0000.50,20.3,26.1,06.0,04.2,0680.6,31.1
2021-05-27T14:34:00Z,00000200,00000000,0000.01,0000.58,0000.20,0000.06,-000.04,-000.27,0000.59,0000.26,0000.44,20.3,26.1,06.0,04.2,0680.6,31.1
2021-05-27T14:35:00Z,00000200,00000000,0000.59,0000.76,0000.46,0000.44,0000.20,0000.24,-000.24,-000.31,-000.41,20.3,26.1,06.1,04.2,0680.6,31.1
2021-05-27T14:36:00Z,00000200,00000000,0000.97,0000.76,0000.26,-000.02,0000.09,0000.06,0000.21,0000.30,0000.01,20.3,26.1,05.9,04.1,0680.6,31.1
2021-05-27T14:37:00Z,00000200,00000000,0000.57,0000.75,0000.34,0000.39,0000.12,0000.17,0000.67,0000.60,0001.12,20.3,26.1,05.7,04.0,0680.6,31.1
2021-05-27T14:38:00Z,00000200,00000000,0001.39,0000.59,0000.33,0000.60,0000.03,-000.07,0000.34,0000.43,-000.37,20.3,26.1,05.9,04.1,0680.6,31.1
2021-05-27T14:39:00Z,00000200,00000000,0000.47,0000.80,0000.32,0000.29,0000.04,-000.21,0000.16,0000.35,0000.59,20.3,26.1,05.8,04.1,0680.6,31.1
2021-05-27T14:40:00Z,00000200,00000000,0000.64,0000.88,0000.34,0000.13,0000.22,0000.12,-000.33,-000.59,-000.49,20.3,26.1,05.7,04.0,0680.6,31.1
2021-05-27T14:41:00Z,00000200,00000000,0001.13,0000.94,0000.34,-000.09,0000.16,0000.38,0000.80,0000.78,0000.73,20.3,26.1,05.5,03.9,0680.6,31.1
2021-05-27T14:42:00Z,00000200,00000000,0000.82,0000.51,0000.25,0000.51,0000.17,0000.10,0000.50,0000.38,0000.15,20.3,26.1,05.6,04.0,0680.5,31.1
2021-05-27T14:43:00Z,00000200,00000000,0001.12,0000.90,0000.36,0000.48,0000.12,0000.16,0000.19,0000.51,0000.51,20.3,26.1,05.8,04.0,0680.5,31.1
2021-05-27T14:44:00Z,00000200,00000000,0001.01,0000.89,0000.36,0000.37,0000.09,-000.08,0000.62,0000.35,0000.13,20.3,26.1,05.8,04.0,0680.4,31.1
2021-05-27T14:45:00Z,00000200,00000000,0000.75,0000.76,0000.29,0000.33,-000.07,0000.01,-000.00,0000.19,-000.17,20.3,26.1,05.9,04.2,0680.4,31.1
2021-05-27T14:46:00Z,00000200,00000000,0001.49,0000.45,0000.49,0000.28,0000.09,0000.02,0000.26,0000.03,0000.79,20.3,26.1,05.8,04.1,0680.4,31.1
2021-05-27T14:47:00Z,00000200,00000000,0001.38,0000.68,0000.11,0000.79,-000.02,-000.04,0000.34,0000.45,0000.08,20.3,26.1,05.8,04.1,0680.5,31.1
2021-05-27T14:48:00Z,00000200,00000000,0000.74,0000.60,0000.39,0000.55,-000.01,0000.11,0000.53,0000.09,-000.18,20.3,26.1,05.8,04.1,0680.5,31.1
2021-05-27T14:49:00Z,00000200,00000000,0000.89,0000.74,0000.32,0000.47,-000.16,-000.24,0000.24,0000.45,0000.36,20.3,26.1,05.8,04.1,0680.5,31.1
2021-05-27T14:50:00Z,00000200,00000000,0000.67,0001.03,0000.36,0000.10,-000.01,0000.36,0000.16,0000.32,-000.53,20.3,26.2,05.7,04.0,0680.5,31.1
2021-05-27T14:51:00Z,00000200,00000000,0001.28,0000.69,0000.52,0000.64,-000.05,0000.08,0000.31,-000.07,0000.66,20.3,26.2,05.6,03.9,0680.5,31.1
2021-05-27T14:52:00Z,00000200,00000000,0000.90,0000.95,0000.61,0000.06,0000.13,0000.04,0000.56,0000.76,0000.98,20.4,26.2,05.7,04.0,0680.5,31.1
2021-05-27T14:53:00Z,00000200,00000000,0001.40,0000.71,0000.23,0000.15,0000.02,0000.03,-000.25,0000.07,-000.58,20.3,26.2,05.6,04.0,0680.5,31.1
2021-05-27T14:54:00Z,00000200,00000000,0001.06,0000.83,0000.46,0000.19,0000.24,0000.22,0000.84,0000.66,0000.61,20.4,26.2,05.4,03.8,0680.6,31.1
2021-05-27T14:55:00Z,00000200,00000000,0001.39,0000.94,0000.30,0000.45,0000.26,0000.30,0000.03,0000.19,0000.42,20.4,26.2,05.4,03.8,0680.6,31.1
2021-05-27T14:56:00Z,00000200,00000000,0000.84,0000.91,0000.53,0000.34,0000.06,0000.10,0000.89,0000.57,0000.47,20.3,26.2,05.7,04.0,0680.6,31.2
2021-05-27T14:57:00Z,00000200,40000000,,,,,,,-000.29,-000.35,-000.15,20.4,26.2,05.8,04.1,0680.6,31.2
2021-05-27T14:58:00Z,00000200,60000000,,,,,,,0000.17,0000.07,-000.22,20.2,26.3,05.6,03.9,0679.8,31.1
2021-05-27T14:59:00Z,00000200,20000000,,,,,,,-000.42,-000.31,-000.10,20.2,26.4,05.7,03.9,0679.8,31.1
